Retour au catalogue

SCOUT B-1 DEB

ActifLEO
NORAD 8868·DEBRIS·🇺🇸 United States

Lancé May 22, 1976 depuis Vandenberg Space Force Base

Loading…

Prochains Passages (prochaines 24 heures)

TLE

FraisSource: Space-Track

Époque: Sep 14, 2026, 09:04 UTC

1 08868U 76047D   26257.37804744  .00000130  00000-0  16721-3 0  9997
2 08868 100.0790  46.8845 0050113  43.7337 345.5614 13.81727603529867

Suivez SCOUT B-1 DEB en temps réel avec AllMySat

Download on the App Store